This demonstration page uses our WeatherBlox Daily Observations layout. Learn more.

Left ArrowRight Arrow

38.20091, -84.87328

Hourly Observations for July 6, 2022

Temp ( °F °C ) Dew Point ( °F °C ) Humidity (%) Winds ( mph kmh ) Pressure ( in mb ) Visibility ( mi km ) Precip ( " mm )
12:53 am 00:53 Clear 79 26.1 72 22.2 79 79 SW 7 11 29.90 1012 10 16 0.00 0.00
1:53 am 01:53 Clear 79 26.1 72 22.2 79 79 S 3 6 29.91 1013 10 16 0.00 0.00
2:53 am 02:53 Clear 78 25.6 72 22.2 82 82 SSW 5 7 29.91 1013 10 16 0.00 0.00
3:53 am 03:53 Clear 76 24.4 72 22.2 88 88 S 3 6 29.91 1013 10 16 0.00 0.00
4:53 am 04:53 Clear 76 24.4 71 21.7 85 85 S 3 6 29.90 1013 10 16 0.00 0.00
5:53 am 05:53 Clear 77 25 72 22.2 85 85 S 3 6 29.91 1013 10 16 0.00 0.00
6:53 am 06:53 Sunny 77 25 72 22.2 85 85 S 5 7 29.92 1013 10 16 0.00 0.00
7:53 am 07:53 Partly Cloudy 79 26.1 73 22.8 82 82 SW 6 9 29.93 1014 10 16 0.00 0.00
8:53 am 08:53 Sunny 84 28.9 75 23.9 74 74 SW 8 13 29.93 1014 10 16 0.00 0.00
9:53 am 09:53 Sunny 87 30.6 75 23.9 67 67 WSW 7 11 29.93 1014 10 16 0.00 0.00
10:53 am 10:53 Sunny 88 31.1 75 23.9 66 66 WSW 9 15 29.93 1014 10 16 0.00 0.00
11:53 am 11:53 Sunny 91 32.8 75 23.9 59 59 WSW 10 17 29.93 1014 10 16 0.00 0.00
12:53 pm 12:53 Sunny 93 33.9 75 23.9 56 56 SW 13 20 29.91 1013 10 16 0.00 0.00
1:53 pm 13:53 Sunny 95 35 73 22.8 49 49 WSW 13 20 29.89 1012 10 16 0.00 0.00
2:53 pm 14:53 Sunny 97 36.1 73 22.8 46 46 SW 16 26 29.85 1011 10 16 0.00 0.00
3:53 pm 15:53 Sunny 95 35 72 22.2 47 47 WSW 10 17 29.87 1012 10 16 0.00 0.00
4:18 pm 16:18 Cloudy with Rain 77 25 71 21.7 82 82 NNW 21 33 29.95 1014 3 4 0.01 0.25
4:30 pm 16:30 Cloudy with Light Rain 75 23.9 71 21.7 88 88 NNW 17 28 29.94 1014 8 13 0.02 0.51
4:42 pm 16:42 Cloudy with Heavy Rain 75 23.9 71 21.7 88 88 VRB 5 7 29.95 1014 2 3 0.09 2.29
4:49 pm 16:49 Mostly Cloudy with Light Rain 75 24 72 22 89 89 N 9 15 29.92 1013 3 5 0.09 2.29
4:53 pm 16:53 Partly Cloudy with Light Rain 75 23.9 72 22.2 90 90 N 6 9 29.92 1013 10 16 0.09 2.29
5:53 pm 17:53 Mostly Cloudy with Light Rain 75 23.9 72 22.2 90 90 S 5 7 29.90 1012 10 16 0.01 0.25
6:53 pm 18:53 Mostly Cloudy with Light Rain 77 25 73 22.8 88 88 Calm 29.90 1012 10 16 0.00 0.00
7:53 pm 19:53 Sunny 77 25 74 23.3 90 90 SSW 3 6 29.91 1013 10 16 0.00 0.00
8:53 pm 20:53 Sunny 77 25 74 23.3 90 90 SSE 6 9 29.91 1013 10 16 0.00 0.00
9:53 pm 21:53 Clear 76 24.4 73 22.8 91 91 SE 3 6 29.92 1013 10 16 0.00 0.00
10:53 pm 22:53 Clear 75 23.9 73 22.8 94 94 SSW 5 7 29.93 1014 10 16 0.00 0.00
11:53 pm 23:53 Mostly Cloudy 76 24.4 73 22.8 91 91 Calm 29.93 1014 10 16 0.00 0.00

Powered by AerisWeather